Time,TemperatureF,DewpointF,PressureIn,WindDirection,WindDirectionDegrees,WindSpeedMPH,WindSpeedGustMPH,Humidity,HourlyPrecipIn,Conditions,Clouds,dailyrainin,SoftwareType,DateUTC
2014-01-07 00:03:00,31.0,31.0,-100.00,NW,320,0.0,0.0,98,0.00,,,0.02,,2014-01-07 09:03:00,
2014-01-07 00:11:00,31.0,31.0,-100.00,NW,320,0.0,0.0,98,0.00,,,0.02,,2014-01-07 09:11:00,
2014-01-07 00:21:00,31.0,31.0,-100.00,NW,320,0.0,0.0,98,0.00,,,0.00,,2014-01-07 09:21:00,
2014-01-07 00:33:00,31.0,31.0,-100.00,NW,320,0.0,0.0,98,0.00,,,0.00,,2014-01-07 09:33:00,
2014-01-07 00:43:00,31.0,31.0,-100.00,NW,320,0.0,0.0,98,0.00,,,0.00,,2014-01-07 09:43:00,
2014-01-07 00:53:00,31.0,30.0,-100.00,NW,320,0.0,0.0,98,0.00,,,0.00,,2014-01-07 09:53:00,
2014-01-07 01:03:00,31.0,30.0,-100.00,NW,320,0.0,0.0,98,0.00,,,0.00,,2014-01-07 10:03:00,
2014-01-07 01:12:00,31.0,30.0,-100.00,NW,320,0.0,0.0,98,0.00,,,0.00,,2014-01-07 10:12:00,
2014-01-07 01:23:00,31.0,30.0,-100.00,NW,320,0.0,0.0,98,0.00,,,0.00,,2014-01-07 10:23:00,
2014-01-07 01:34:00,31.0,30.0,-100.00,NW,320,0.0,0.0,98,0.00,,,0.00,,2014-01-07 10:34:00,
2014-01-07 01:42:00,31.0,30.0,-100.00,NW,320,0.0,0.0,98,0.00,,,0.00,,2014-01-07 10:42:00,
2014-01-07 01:52:00,31.0,31.0,-100.00,NW,320,0.0,0.0,98,0.02,,,0.02,,2014-01-07 10:52:00,
2014-01-07 02:02:00,31.0,31.0,-100.00,NW,320,0.0,0.0,98,0.02,,,0.02,,2014-01-07 11:02:00,
2014-01-07 02:12:00,31.0,31.0,-100.00,NW,320,0.0,0.0,98,0.02,,,0.02,,2014-01-07 11:12:00,
2014-01-07 02:22:00,31.0,31.0,-100.00,NW,320,0.0,0.0,98,0.02,,,0.02,,2014-01-07 11:22:00,
2014-01-07 02:33:00,31.0,31.0,-100.00,NW,320,0.0,0.0,98,0.02,,,0.02,,2014-01-07 11:33:00,
2014-01-07 02:43:00,31.0,31.0,-100.00,NW,320,0.0,0.0,98,0.02,,,0.02,,2014-01-07 11:43:00,
2014-01-07 02:53:00,31.0,31.0,-100.00,NW,320,0.0,0.0,98,0.02,,,0.04,,2014-01-07 11:53:00,
2014-01-07 03:02:00,31.0,31.0,-100.00,NW,320,0.0,0.0,98,0.02,,,0.04,,2014-01-07 12:02:00,
2014-01-07 03:12:00,31.0,31.0,-100.00,NW,320,0.0,0.0,98,0.02,,,0.04,,2014-01-07 12:12:00,
2014-01-07 03:22:00,31.0,31.0,-100.00,NW,320,0.0,0.0,98,0.04,,,0.06,,2014-01-07 12:22:00,
2014-01-07 03:32:00,31.0,31.0,-100.00,NW,320,0.0,0.0,98,0.04,,,0.06,,2014-01-07 12:32:00,
2014-01-07 03:43:00,31.0,31.0,-100.00,NW,320,0.0,0.0,98,0.04,,,0.06,,2014-01-07 12:43:00,
2014-01-07 03:52:00,31.0,31.0,-100.00,NW,320,0.0,0.0,98,0.02,,,0.06,,2014-01-07 12:52:00,
2014-01-07 04:02:00,31.0,31.0,-100.00,NW,320,0.0,0.0,98,0.02,,,0.06,,2014-01-07 13:02:00,
2014-01-07 04:12:00,31.0,31.0,-100.00,NW,320,0.0,0.0,98,0.02,,,0.06,,2014-01-07 13:12:00,
2014-01-07 04:21:00,31.0,31.0,-100.00,NW,320,0.0,0.0,98,0.02,,,0.08,,2014-01-07 13:21:00,
2014-01-07 04:32:00,31.0,31.0,-100.00,NW,320,0.0,0.0,98,0.02,,,0.08,,2014-01-07 13:32:00,
2014-01-07 04:42:00,31.0,31.0,-100.00,NW,320,0.0,0.0,98,0.02,,,0.08,,2014-01-07 13:42:00,
2014-01-07 04:52:00,31.0,31.0,-100.00,NW,320,0.0,0.0,98,0.02,,,0.10,,2014-01-07 13:52:00,
2014-01-07 05:02:00,31.0,31.0,-100.00,NW,320,0.0,0.0,98,0.02,,,0.10,,2014-01-07 14:02:00,
2014-01-07 05:12:00,31.0,31.0,-100.00,NW,320,0.0,0.0,98,0.02,,,0.10,,2014-01-07 14:12:00,
2014-01-07 05:22:00,31.0,30.0,-100.00,NW,320,0.0,0.0,98,0.04,,,0.12,,2014-01-07 14:22:00,
2014-01-07 05:32:00,31.0,30.0,-100.00,NW,320,0.0,0.0,98,0.04,,,0.12,,2014-01-07 14:32:00,
2014-01-07 05:42:00,31.0,30.0,-100.00,NW,320,0.0,0.0,98,0.04,,,0.12,,2014-01-07 14:42:00,
2014-01-07 05:52:00,31.0,30.0,-100.00,NW,320,0.0,0.0,98,0.04,,,0.14,,2014-01-07 14:52:00,
2014-01-07 06:02:00,31.0,30.0,-100.00,NW,320,0.0,0.0,98,0.04,,,0.14,,2014-01-07 15:02:00,
2014-01-07 06:11:00,31.0,30.0,-100.00,NW,320,0.0,0.0,98,0.04,,,0.14,,2014-01-07 15:11:00,
2014-01-07 06:22:00,30.0,30.0,-100.00,NW,320,0.0,0.0,98,0.02,,,0.14,,2014-01-07 15:22:00,
2014-01-07 06:33:00,30.0,30.0,-100.00,NW,320,0.0,0.0,98,0.02,,,0.14,,2014-01-07 15:33:00,
2014-01-07 06:43:00,30.0,30.0,-100.00,NW,320,0.0,0.0,98,0.02,,,0.14,,2014-01-07 15:43:00,
2014-01-07 06:53:00,30.0,30.0,-100.00,NW,320,0.0,0.0,98,0.02,,,0.16,,2014-01-07 15:53:00,
2014-01-07 07:03:00,30.0,30.0,-100.00,NW,320,0.0,0.0,98,0.02,,,0.16,,2014-01-07 16:03:00,
2014-01-07 07:13:00,30.0,30.0,-100.00,NW,320,0.0,0.0,98,0.02,,,0.16,,2014-01-07 16:13:00,
2014-01-07 07:23:00,30.0,30.0,-100.00,NW,320,0.0,0.0,98,0.04,,,0.18,,2014-01-07 16:23:00,
2014-01-07 07:33:00,30.0,30.0,-100.00,NW,320,0.0,0.0,98,0.04,,,0.18,,2014-01-07 16:33:00,
2014-01-07 07:43:00,30.0,30.0,-100.00,NW,320,0.0,0.0,98,0.04,,,0.18,,2014-01-07 16:43:00,
2014-01-07 07:52:00,30.0,30.0,-100.00,NW,320,0.0,0.0,98,0.04,,,0.20,,2014-01-07 16:52:00,
2014-01-07 08:02:00,30.0,30.0,-100.00,NW,320,0.0,0.0,98,0.04,,,0.20,,2014-01-07 17:02:00,
2014-01-07 08:12:00,30.0,30.0,-100.00,NW,320,0.0,0.0,98,0.04,,,0.20,,2014-01-07 17:12:00,
2014-01-07 08:22:00,30.0,30.0,-100.00,NW,320,0.0,0.0,98,0.02,,,0.20,,2014-01-07 17:22:00,
2014-01-07 08:33:00,30.0,30.0,-100.00,NW,320,0.0,0.0,98,0.02,,,0.20,,2014-01-07 17:33:00,
2014-01-07 08:42:00,30.0,30.0,-100.00,NW,320,0.0,0.0,98,0.02,,,0.20,,2014-01-07 17:42:00,
2014-01-07 08:52:00,30.0,30.0,-100.00,NW,320,0.0,0.0,98,0.02,,,0.22,,2014-01-07 17:52:00,
2014-01-07 09:02:00,30.0,30.0,-100.00,NW,320,0.0,0.0,98,0.02,,,0.22,,2014-01-07 18:02:00,
2014-01-07 09:12:00,30.0,30.0,-100.00,NW,320,0.0,0.0,98,0.02,,,0.22,,2014-01-07 18:12:00,
2014-01-07 09:21:00,30.0,30.0,-100.00,NW,320,0.0,0.0,98,0.01,,,0.23,,2014-01-07 18:21:00,
2014-01-07 09:32:00,30.0,30.0,-100.00,NW,320,0.0,0.0,98,0.01,,,0.23,,2014-01-07 18:32:00,
2014-01-07 09:42:00,30.0,30.0,-100.00,NW,320,0.0,0.0,98,0.01,,,0.23,,2014-01-07 18:42:00,
2014-01-07 09:52:00,30.0,30.0,-100.00,NW,320,0.0,0.0,98,0.03,,,0.25,,2014-01-07 18:52:00,
2014-01-07 10:02:00,30.0,30.0,-100.00,NW,320,0.0,0.0,98,0.03,,,0.25,,2014-01-07 19:02:00,
2014-01-07 10:11:00,30.0,30.0,-100.00,NW,320,0.0,0.0,98,0.03,,,0.25,,2014-01-07 19:11:00,
2014-01-07 10:21:00,31.0,30.0,-100.00,NW,320,0.0,0.0,98,0.02,,,0.25,,2014-01-07 19:21:00,
2014-01-07 10:32:00,31.0,30.0,-100.00,NW,320,0.0,0.0,98,0.02,,,0.25,,2014-01-07 19:32:00,
2014-01-07 10:43:00,31.0,30.0,-100.00,NW,320,0.0,0.0,98,0.02,,,0.25,,2014-01-07 19:43:00,
2014-01-07 10:52:00,31.0,31.0,-100.00,NW,320,0.0,0.0,98,0.02,,,0.27,,2014-01-07 19:52:00,
2014-01-07 11:01:00,31.0,31.0,-100.00,NW,320,0.0,0.0,98,0.02,,,0.27,,2014-01-07 20:01:00,
2014-01-07 11:12:00,31.0,31.0,-100.00,NW,320,0.0,0.0,98,0.02,,,0.27,,2014-01-07 20:12:00,
2014-01-07 11:22:00,31.0,31.0,-100.00,NW,320,0.0,0.0,98,0.02,,,0.27,,2014-01-07 20:22:00,
2014-01-07 11:33:00,31.0,31.0,-100.00,NW,320,0.0,0.0,98,0.02,,,0.27,,2014-01-07 20:33:00,
2014-01-07 11:42:00,31.0,31.0,-100.00,NW,320,0.0,0.0,98,0.02,,,0.27,,2014-01-07 20:42:00,
2014-01-07 11:52:00,32.0,31.0,-100.00,NW,320,0.0,0.0,98,0.02,,,0.29,,2014-01-07 20:52:00,
2014-01-07 12:02:00,32.0,31.0,-100.00,NW,320,0.0,0.0,98,0.02,,,0.29,,2014-01-07 21:02:00,
2014-01-07 12:12:00,32.0,31.0,-100.00,NW,320,0.0,0.0,98,0.02,,,0.29,,2014-01-07 21:12:00,
2014-01-07 12:22:00,32.0,31.0,-100.00,WNW,290,0.0,0.0,98,0.01,,,0.30,,2014-01-07 21:22:00,
2014-01-07 12:33:00,32.0,31.0,-100.00,WNW,290,0.0,0.0,98,0.01,,,0.30,,2014-01-07 21:33:00,
2014-01-07 12:43:00,32.0,31.0,-100.00,WNW,290,0.0,0.0,98,0.01,,,0.30,,2014-01-07 21:43:00,
2014-01-07 12:53:00,32.0,32.0,-100.00,WNW,290,0.0,0.0,98,0.01,,,0.30,,2014-01-07 21:53:00,
2014-01-07 13:03:00,32.0,32.0,-100.00,WNW,290,0.0,0.0,98,0.01,,,0.30,,2014-01-07 22:03:00,
2014-01-07 13:13:00,32.0,32.0,-100.00,WNW,290,0.0,0.0,98,0.01,,,0.30,,2014-01-07 22:13:00,
2014-01-07 13:23:00,32.0,32.0,-100.00,WNW,300,0.0,0.0,98,0.03,,,0.33,,2014-01-07 22:23:00,
2014-01-07 13:33:00,32.0,32.0,-100.00,WNW,300,0.0,0.0,98,0.03,,,0.33,,2014-01-07 22:33:00,
2014-01-07 13:43:00,32.0,32.0,-100.00,WNW,300,0.0,0.0,98,0.03,,,0.33,,2014-01-07 22:43:00,
2014-01-07 13:52:00,32.0,31.0,-100.00,WNW,290,0.0,0.0,98,0.03,,,0.33,,2014-01-07 22:52:00,
2014-01-07 14:02:00,32.0,31.0,-100.00,WNW,290,0.0,0.0,98,0.03,,,0.33,,2014-01-07 23:02:00,
2014-01-07 14:12:00,32.0,31.0,-100.00,WNW,290,0.0,0.0,98,0.03,,,0.33,,2014-01-07 23:12:00,
2014-01-07 14:22:00,32.0,31.0,-100.00,WNW,290,0.0,0.0,98,0.02,,,0.35,,2014-01-07 23:22:00,
2014-01-07 14:33:00,32.0,31.0,-100.00,WNW,290,0.0,0.0,98,0.02,,,0.35,,2014-01-07 23:33:00,
2014-01-07 14:43:00,32.0,31.0,-100.00,WNW,290,0.0,0.0,98,0.02,,,0.35,,2014-01-07 23:43:00,
2014-01-07 14:52:00,32.0,32.0,-100.00,WNW,290,0.0,0.0,98,0.02,,,0.35,,2014-01-07 23:52:00,
2014-01-07 15:02:00,32.0,32.0,-100.00,WNW,290,0.0,0.0,98,0.02,,,0.35,,2014-01-08 00:02:00,
2014-01-07 15:11:00,32.0,32.0,-100.00,WNW,290,0.0,0.0,98,0.02,,,0.35,,2014-01-08 00:11:00,
2014-01-07 15:22:00,32.0,31.0,-100.00,WNW,285,0.0,0.0,98,0.02,,,0.37,,2014-01-08 00:22:00,
2014-01-07 15:32:00,32.0,31.0,-100.00,WNW,285,0.0,0.0,98,0.02,,,0.37,,2014-01-08 00:32:00,
2014-01-07 15:42:00,32.0,31.0,-100.00,WNW,285,0.0,0.0,98,0.02,,,0.37,,2014-01-08 00:42:00,
2014-01-07 15:52:00,32.0,31.0,-100.00,WNW,285,0.0,0.0,98,0.02,,,0.37,,2014-01-08 00:52:00,
2014-01-07 16:02:00,32.0,31.0,-100.00,WNW,285,0.0,0.0,98,0.02,,,0.37,,2014-01-08 01:02:00,
2014-01-07 16:11:00,32.0,31.0,-100.00,WNW,285,0.0,0.0,98,0.02,,,0.37,,2014-01-08 01:11:00,
2014-01-07 16:22:00,31.0,31.0,-100.00,WNW,285,0.0,0.0,98,0.00,,,0.37,,2014-01-08 01:22:00,
2014-01-07 16:32:00,31.0,31.0,-100.00,WNW,285,0.0,0.0,98,0.00,,,0.37,,2014-01-08 01:32:00,
2014-01-07 16:42:00,31.0,31.0,-100.00,WNW,285,0.0,0.0,98,0.00,,,0.37,,2014-01-08 01:42:00,
2014-01-07 16:52:00,31.0,31.0,-100.00,WNW,285,0.0,0.0,98,0.00,,,0.37,,2014-01-08 01:52:00,
2014-01-07 17:02:00,31.0,31.0,-100.00,WNW,285,0.0,0.0,98,0.00,,,0.37,,2014-01-08 02:02:00,
2014-01-07 17:12:00,31.0,31.0,-100.00,WNW,285,0.0,0.0,98,0.00,,,0.37,,2014-01-08 02:12:00,
2014-01-07 17:21:00,31.0,30.0,-100.00,WNW,285,0.0,0.0,98,0.00,,,0.37,,2014-01-08 02:21:00,
2014-01-07 17:32:00,31.0,30.0,-100.00,WNW,285,0.0,0.0,98,0.00,,,0.37,,2014-01-08 02:32:00,
2014-01-07 17:42:00,31.0,30.0,-100.00,WNW,285,0.0,0.0,98,0.00,,,0.37,,2014-01-08 02:42:00,
2014-01-07 17:52:00,31.0,30.0,-100.00,WNW,285,0.0,0.0,98,0.00,,,0.37,,2014-01-08 02:52:00,
2014-01-07 18:02:00,31.0,30.0,-100.00,WNW,285,0.0,0.0,98,0.00,,,0.37,,2014-01-08 03:02:00,
2014-01-07 18:12:00,31.0,30.0,-100.00,WNW,285,0.0,0.0,98,0.00,,,0.37,,2014-01-08 03:12:00,
2014-01-07 18:21:00,31.0,30.0,-100.00,WNW,285,0.0,0.0,98,0.00,,,0.37,,2014-01-08 03:21:00,
2014-01-07 18:33:00,31.0,30.0,-100.00,WNW,285,0.0,0.0,98,0.00,,,0.37,,2014-01-08 03:33:00,
2014-01-07 18:43:00,31.0,30.0,-100.00,WNW,285,0.0,0.0,98,0.00,,,0.37,,2014-01-08 03:43:00,
2014-01-07 18:53:00,31.0,30.0,-100.00,WNW,285,0.0,0.0,98,0.00,,,0.37,,2014-01-08 03:53:00,
2014-01-07 19:03:00,31.0,30.0,-100.00,WNW,285,0.0,0.0,98,0.00,,,0.37,,2014-01-08 04:03:00,
2014-01-07 19:12:00,31.0,30.0,-100.00,WNW,285,0.0,0.0,98,0.00,,,0.37,,2014-01-08 04:12:00,
2014-01-07 19:23:00,31.0,30.0,-100.00,WNW,285,0.0,0.0,98,0.00,,,0.37,,2014-01-08 04:23:00,
2014-01-07 19:33:00,31.0,30.0,-100.00,WNW,285,0.0,0.0,98,0.00,,,0.37,,2014-01-08 04:33:00,
2014-01-07 19:42:00,31.0,30.0,-100.00,WNW,285,0.0,0.0,98,0.00,,,0.37,,2014-01-08 04:42:00,
2014-01-07 19:53:00,31.0,31.0,-100.00,WNW,285,0.0,0.0,98,0.00,,,0.37,,2014-01-08 04:53:00,
2014-01-07 20:02:00,31.0,31.0,-100.00,WNW,285,0.0,0.0,98,0.00,,,0.37,,2014-01-08 05:02:00,
2014-01-07 20:12:00,31.0,31.0,-100.00,WNW,285,0.0,0.0,98,0.00,,,0.37,,2014-01-08 05:12:00,
2014-01-07 20:22:00,31.0,31.0,-100.00,WNW,285,0.0,0.0,98,0.00,,,0.37,,2014-01-08 05:22:00,
2014-01-07 20:32:00,31.0,31.0,-100.00,WNW,285,0.0,0.0,98,0.00,,,0.37,,2014-01-08 05:32:00,
2014-01-07 20:43:00,31.0,31.0,-100.00,WNW,285,0.0,0.0,98,0.00,,,0.37,,2014-01-08 05:43:00,
2014-01-07 20:52:00,31.0,30.0,-100.00,WNW,285,0.0,0.0,98,0.00,,,0.37,,2014-01-08 05:52:00,
2014-01-07 21:02:00,31.0,30.0,-100.00,WNW,285,0.0,0.0,98,0.00,,,0.37,,2014-01-08 06:02:00,
2014-01-07 21:12:00,31.0,30.0,-100.00,WNW,285,0.0,0.0,98,0.00,,,0.37,,2014-01-08 06:12:00,
2014-01-07 21:22:00,31.0,30.0,-100.00,WNW,285,0.0,0.0,98,0.00,,,0.37,,2014-01-08 06:22:00,
2014-01-07 21:32:00,31.0,30.0,-100.00,WNW,285,0.0,0.0,98,0.00,,,0.37,,2014-01-08 06:32:00,
2014-01-07 21:43:00,31.0,30.0,-100.00,WNW,285,0.0,0.0,98,0.00,,,0.37,,2014-01-08 06:43:00,
2014-01-07 21:52:00,31.0,30.0,-100.00,WNW,285,0.0,0.0,98,0.00,,,0.37,,2014-01-08 06:52:00,
2014-01-07 22:02:00,31.0,30.0,-100.00,WNW,285,0.0,0.0,98,0.00,,,0.37,,2014-01-08 07:02:00,
2014-01-07 22:12:00,31.0,30.0,-100.00,WNW,285,0.0,0.0,98,0.00,,,0.37,,2014-01-08 07:12:00,
2014-01-07 22:22:00,31.0,30.0,-100.00,WNW,285,0.0,0.0,98,0.00,,,0.37,,2014-01-08 07:22:00,
2014-01-07 22:32:00,31.0,30.0,-100.00,WNW,285,0.0,0.0,98,0.00,,,0.37,,2014-01-08 07:32:00,
2014-01-07 22:42:00,31.0,30.0,-100.00,WNW,285,0.0,0.0,98,0.00,,,0.37,,2014-01-08 07:42:00,
2014-01-07 22:53:00,31.0,30.0,-100.00,WNW,285,0.0,0.0,98,0.00,,,0.37,,2014-01-08 07:53:00,
2014-01-07 23:02:00,31.0,30.0,-100.00,WNW,285,0.0,0.0,98,0.00,,,0.37,,2014-01-08 08:02:00,
2014-01-07 23:12:00,31.0,30.0,-100.00,WNW,285,0.0,0.0,98,0.00,,,0.37,,2014-01-08 08:12:00,
2014-01-07 23:22:00,31.0,30.0,-100.00,WNW,285,0.0,0.0,98,0.00,,,0.37,,2014-01-08 08:22:00,
2014-01-07 23:33:00,31.0,30.0,-100.00,WNW,285,0.0,0.0,98,0.00,,,0.37,,2014-01-08 08:33:00,
2014-01-07 23:43:00,31.0,30.0,-100.00,WNW,285,0.0,0.0,98,0.00,,,0.37,,2014-01-08 08:43:00,
2014-01-07 23:53:00,31.0,30.0,-100.00,WNW,285,0.0,0.0,98,0.00,,,0.37,,2014-01-08 08:53:00,